Wind_Speed
28 32 38 27 30 31 22 14 20 21 20 23 26 26 20 20 24 23 21 22 22 21 18 16 15 14 13 12 12 10 9 8 8 9 10 11 12 14 14 15 17 18 18 19
31 40 30 27 28 30 31 22 17 16 17 19 22 28 25 22 24 25 23 22 20 20 19 18 17 15 14 12 11 10 8 7 7 9 9 10 12 14 14 14 16 17 17 18
36 26 28 32 32 30 30 31 27 19 12 15 21 29 26 23 22 24 23 21 18 17 16 16 16 15 14 12 11 10 8 7 7 8 9 9 11 13 14 14 15 16 16 16
29 36 31 22 37 30 27 26 24 25 18 9 11 8 15 11 15 22 22 20 17 15 15 15 15 15 14 12 11 10 8 7 7 7 8 10 11 12 13 12 13 15 15 14
32 24 34 37 23 28 27 22 20 21 23 23 23 10 13 21 22 17 21 21 18 16 15 15 16 15 14 12 12 11 9 7 6 7 8 10 10 11 12 11 12 13 14 12
34 24 25 33 36 18 26 21 13 12 12 7 23 18 12 23 22 17 22 21 19 16 15 16 16 15 14 13 13 12 9 7 7 7 8 9 10 11 12 12 11 12 13 11
31 34 33 26 25 30 21 20 3 1 2 6 11 18 31 14 18 20 20 21 20 17 15 14 15 15 15 15 15 14 11 8 7 6 7 9 9 10 11 11 11 11 12 11
33 16 40 33 30 31 34 31 11 8 5 3 12 13 14 18 22 19 21 21 19 17 15 15 17 19 19 19 18 15 13 10 7 6 7 7 8 9 10 10 10 9 9 9
34 29 25 43 35 27 35 35 30 0 2 1 8 13 22 17 20 26 23 20 18 18 16 16 15 17 20 20 19 17 15 12 8 7 7 6 7 9 10 10 10 9 8 8
27 16 27 32 35 35 31 35 19 20 4 4 6 9 13 17 23 23 23 23 23 21 18 16 15 16 19 20 21 19 16 14 11 9 7 7 7 8 9 10 11 10 8 7
29 27 17 33 36 41 38 28 23 16 15 5 2 9 17 18 12 19 20 20 19 18 16 15 17 18 19 21 21 19 18 16 14 12 10 9 9 10 9 11 11 11 9 7
51 21 16 33 32 42 43 38 43 21 12 21 3 14 4 15 23 21 22 19 17 16 15 16 17 17 19 19 20 20 20 19 18 14 13 11 11 11 10 10 10 10 9 6
55 28 12 9 24 33 39 45 42 42 28 28 13 18 21 14 22 24 23 22 21 19 16 15 16 18 18 19 21 21 21 20 19 16 15 15 14 14 12 11 12 10 11 8
43 34 38 23 27 45 50 53 47 46 30 29 35 39 15 23 22 22 22 22 19 17 16 16 16 16 17 18 19 19 18 18 18 17 17 17 18 17 16 13 13 12 11 11
40 43 40 37 19 21 38 53 51 43 53 30 49 40 34 26 21 20 22 21 19 19 16 15 14 13 12 12 12 12 12 11 12 13 15 19 22 19 18 17 14 13 11 12
45 26 40 39 34 27 31 31 36 51 57 54 41 37 33 25 23 24 21 20 21 20 18 17 16 14 13 11 11 12 12 14 15 17 17 18 19 20 19 18 16 14 12 11
49 35 23 20 34 28 19 38 41 42 50 60 65 59 24 30 30 28 28 29 27 23 21 22 21 19 16 15 16 17 19 21 22 23 23 22 20 19 19 19 16 15 14 12
54 46 21 10 18 7 32 37 29 42 42 45 58 55 51 46 34 28 28 28 29 27 26 25 22 20 20 20 20 21 22 24 25 25 24 24 23 21 21 19 17 15 15 14
47 50 21 15 19 7 23 33 32 36 42 46 41 45 53 50 42 37 36 34 30 29 29 26 23 21 20 18 15 14 16 17 19 20 21 22 22 23 22 20 18 16 14 15
48 45 41 18 9 9 37 30 16 17 40 31 41 48 43 46 41 41 35 36 37 35 30 26 24 23 20 15 13 13 13 14 16 16 16 16 17 19 20 20 17 15 13 14
41 45 41 24 11 15 23 18 21 18 26 18 32 38 38 42 45 34 33 38 36 31 27 26 23 18 14 13 13 12 11 10 9 7 7 11 13 14 15 15 14 13 10 9
41 28 21 22 12 13 23 28 33 31 24 17 13 26 33 36 39 36 32 31 31 30 28 24 19 16 14 13 11 10 9 9 10 8 6 5 4 4 7 10 12 17 15 20
30 40 32 30 40 21 20 31 25 25 16 15 15 26 23 24 35 38 36 31 31 29 24 22 19 17 15 14 12 10 8 6 5 5 6 7 8 8 9 11 13 15 17 16
32 41 32 33 40 41 15 11 17 19 18 18 17 21 29 27 29 32 33 32 31 27 25 22 20 20 17 15 12 11 9 8 7 8 9 9 9 10 13 15 16 16 14 15
38 39 37 35 29 26 31 34 20 22 26 23 25 26 28 30 30 30 33 31 29 28 27 25 23 22 18 16 13 12 11 11 12 13 14 14 14 14 13 12 12 14 17 18
40 37 40 47 42 34 34 25 21 29 30 25 22 24 26 26 29 30 29 29 29 29 28 28 25 22 18 15 13 13 14 16 17 19 22 24 25 25 24 22 21 18 17 17
Wind_Direction
226 229 230 235 233 231 238 244 249 252 255 259 261 260 246 245 252 253 247 250 255 261 262 264 264 264 266 275 279 277 273 272 280 294 303 311 315 323 329 336 341 339 345 346
230 234 235 236 236 235 238 243 250 262 262 263 261 260 257 252 250 255 256 256 257 256 258 259 255 253 257 262 268 269 259 261 281 294 304 311 313 323 328 337 344 344 348 350
235 237 233 232 233 232 237 240 245 255 257 266 277 272 263 258 251 253 255 256 256 252 251 251 244 241 245 250 255 254 245 261 280 295 305 310 312 324 331 338 343 347 351 355
241 238 237 239 236 232 240 241 245 242 258 273 277 286 264 260 240 240 244 246 243 247 255 248 239 236 238 244 244 237 240 258 277 293 305 310 315 325 334 337 341 348 353 356
229 237 232 236 241 234 235 235 242 245 253 260 256 268 270 257 247 237 236 236 238 252 243 237 235 236 238 238 237 232 238 251 271 286 301 308 314 324 334 336 340 347 353 358
234 236 232 234 236 236 233 233 230 227 230 256 241 226 252 252 253 241 237 234 237 237 244 243 240 238 236 236 234 228 236 245 264 281 299 306 313 324 334 339 341 344 354 358
229 229 233 235 229 229 221 204 113 244 198 226 194 214 235 232 245 237 232 230 230 240 245 241 238 233 230 230 229 225 231 238 254 277 296 307 318 323 335 341 341 342 355 360
219 228 225 224 222 218 202 202 186 195 196 209 194 231 239 221 229 231 228 231 235 238 236 236 241 239 233 229 224 224 229 234 245 271 287 303 323 329 332 339 339 337 354 2
212 225 237 226 225 217 203 205 217 214 166 159 212 249 240 217 216 230 230 232 234 239 236 239 241 235 232 228 221 223 226 229 237 253 277 298 321 329 333 337 334 333 345 0
213 211 221 218 214 217 219 214 202 216 145 243 246 251 219 220 225 227 232 234 237 240 241 240 235 230 227 225 224 225 226 227 234 244 260 278 302 314 328 331 331 330 328 350
209 208 197 203 204 210 206 205 207 210 226 178 200 247 245 226 222 225 226 231 231 231 231 233 232 229 227 229 227 227 228 230 235 243 257 273 295 306 322 327 329 326 321 335
212 214 205 198 206 212 216 215 212 202 209 219 227 247 226 216 219 210 216 220 228 233 233 232 229 228 231 231 229 229 232 235 238 246 259 274 287 299 309 311 314 314 311 314
207 210 193 211 221 215 217 215 216 215 226 218 195 244 232 210 209 214 220 228 236 236 232 231 231 230 228 229 229 231 236 240 247 254 264 275 282 285 293 298 304 304 306 296
204 208 205 207 214 219 214 221 216 215 219 223 224 236 217 219 214 220 221 226 228 234 237 230 227 228 228 229 230 234 238 244 253 260 263 268 272 276 283 287 289 295 296 289
203 212 219 219 239 216 224 223 220 218 220 222 237 239 239 230 220 221 230 227 232 234 222 212 213 210 207 208 213 220 226 235 245 255 259 259 260 265 271 278 282 287 287 291
205 216 220 218 223 227 228 220 226 232 233 236 241 246 245 230 219 217 220 230 230 224 215 208 205 201 203 211 221 234 246 253 260 260 258 262 265 262 264 272 278 280 278 280
202 208 194 210 225 223 229 233 233 234 231 233 234 233 235 216 223 228 233 240 234 227 219 211 211 216 226 242 253 261 265 267 265 262 259 258 260 258 258 263 270 272 276 271
211 205 188 178 183 203 241 240 249 245 245 240 239 239 234 238 242 239 245 237 228 224 220 220 225 237 247 255 260 262 261 261 262 262 261 260 257 258 255 257 261 269 275 274
216 209 199 194 197 245 231 234 230 226 246 236 237 238 238 239 241 235 226 220 221 223 226 231 241 250 259 267 265 255 252 254 258 261 262 260 258 253 254 253 253 256 261 270
207 216 204 179 173 196 236 240 227 239 253 240 236 235 233 229 227 223 223 225 226 224 227 237 246 255 266 260 253 252 253 256 260 264 261 255 253 252 250 251 253 257 264 271
191 192 194 189 195 223 223 205 193 191 251 251 231 226 223 228 232 229 224 219 220 222 230 236 244 251 236 237 240 244 247 252 259 265 258 250 249 248 248 250 250 256 269 286
186 178 183 176 189 243 223 196 210 244 237 260 240 216 221 228 227 217 220 220 219 223 227 235 231 222 224 222 222 229 233 237 241 244 244 238 231 235 241 248 245 248 251 264
194 196 193 201 209 219 215 225 228 220 231 242 243 212 205 210 215 215 219 213 214 220 224 210 211 211 207 207 210 213 219 226 235 245 248 245 251 250 248 253 263 271 273 277
197 203 206 211 218 220 178 193 214 228 232 236 214 207 210 214 212 205 207 210 209 209 201 207 205 200 201 206 209 213 219 230 242 252 259 262 262 260 255 258 257 257 256 271
199 197 196 209 210 216 231 240 231 218 223 226 217 214 207 205 208 208 206 202 201 201 203 199 197 198 201 205 212 224 238 250 258 264 269 269 268 267 266 265 268 265 261 264
229 230 219 221 218 239 248 244 229 212 217 212 210 209 198 205 208 205 203 200 200 201 198 194 194 196 203 214 228 244 258 268 273 276 276 275 275 274 273 271 270 271 271 271
Height
3073 3073 3069 3079 3082 3083 3085 3086 3087 3089 3089 3089 3089 3087 3091 3093 3091 3093 3095 3095 3097 3098 3098 3100 3101 3101 3101 3102 3102 3102 3102 3102 3102 3103 3103 3101 3101 3099 3098 3096 3093 3091 3087 3084
3068 3061 3073 3076 3077 3079 3081 3083 3085 3086 3086 3086 3084 3081 3084 3087 3087 3088 3090 3091 3092 3093 3094 3096 3097 3097 3098 3099 3100 3101 3101 3101 3101 3101 3100 3100 3099 3097 3096 3094 3091 3089 3086 3083
3061 3064 3068 3068 3071 3073 3075 3078 3082 3086 3084 3083 3081 3076 3077 3080 3082 3083 3085 3087 3088 3089 3089 3091 3092 3093 3095 3096 3097 3099 3099 3100 3100 3100 3099 3098 3097 3096 3095 3093 3090 3088 3085 3083
3059 3061 3063 3063 3064 3069 3071 3075 3078 3081 3083 3082 3082 3075 3073 3074 3076 3078 3080 3081 3084 3085 3086 3086 3088 3089 3091 3093 3095 3096 3097 3098 3098 3098 3098 3097 3096 3094 3093 3091 3089 3087 3085 3082
3049 3054 3058 3058 3061 3066 3067 3070 3074 3077 3078 3079 3078 3081 3066 3069 3071 3073 3075 3077 3079 3080 3082 3083 3084 3086 3088 3090 3092 3093 3094 3095 3096 3096 3096 3095 3095 3093 3091 3089 3087 3084 3083 3082
3046 3050 3052 3052 3058 3062 3065 3069 3071 3074 3075 3074 3070 3074 3061 3064 3066 3067 3070 3072 3074 3076 3078 3080 3081 3082 3084 3086 3088 3090 3092 3093 3093 3094 3094 3094 3093 3091 3090 3088 3086 3083 3081 3081
3036 3041 3046 3048 3051 3057 3061 3067 3071 3077 3076 3067 3063 3065 3052 3058 3060 3062 3064 3067 3070 3072 3074 3076 3078 3079 3080 3082 3084 3087 3089 3090 3091 3092 3092 3092 3091 3090 3088 3087 3086 3083 3081 3080
3030 3035 3036 3039 3043 3045 3051 3059 3058 3068 3066 3057 3060 3052 3046 3052 3055 3057 3059 3062 3065 3068 3070 3071 3074 3076 3077 3078 3080 3083 3086 3088 3088 3090 3091 3090 3089 3089 3087 3084 3084 3082 3080 3079
3019 3025 3029 3033 3038 3044 3047 3050 3054 3055 3055 3055 3049 3044 3044 3046 3050 3052 3055 3057 3060 3062 3065 3067 3069 3071 3074 3075 3077 3079 3082 3085 3086 3086 3089 3088 3086 3086 3086 3083 3082 3081 3079 3078
3008 3017 3018 3025 3031 3036 3038 3045 3050 3051 3057 3057 3042 3040 3037 3039 3043 3046 3050 3053 3056 3058 3061 3063 3065 3067 3070 3072 3074 3076 3079 3082 3083 3084 3085 3085 3084 3084 3083 3082 3081 3080 3078 3076
3001 3006 3012 3017 3020 3023 3030 3033 3039 3042 3043 3040 3046 3033 3034 3038 3041 3044 3047 3049 3051 3054 3057 3059 3061 3063 3066 3068 3071 3074 3076 3078 3080 3081 3081 3083 3082 3082 3082 3081 3079 3079 3077 3076
2994 3001 3004 3007 3010 3017 3020 3024 3028 3030 3032 3032 3033 3027 3030 3031 3036 3040 3043 3045 3047 3050 3053 3055 3057 3059 3062 3065 3068 3070 3072 3074 3076 3078 3079 3080 3080 3080 3079 3079 3077 3076 3075 3074
2983 2992 3001 3006 3011 3009 3010 3014 3018 3022 3024 3023 3029 3020 3026 3029 3033 3037 3040 3042 3044 3046 3049 3051 3054 3056 3058 3061 3064 3067 3069 3071 3072 3075 3076 3077 3077 3077 3076 3076 3076 3074 3073 3072
2978 2980 2980 2981 2979 2984 2997 3003 3009 3014 3018 3014 3014 3015 3020 3025 3029 3034 3036 3038 3041 3043 3045 3048 3049 3051 3054 3057 3060 3063 3066 3067 3068 3070 3072 3073 3073 3073 3073 3073 3074 3072 3071 3070
2970 2971 2974 2979 2982 2980 2984 2991 2999 3004 3006 3011 3003 3009 3016 3022 3027 3030 3031 3034 3037 3039 3042 3044 3046 3048 3052 3054 3056 3059 3062 3063 3064 3065 3066 3067 3067 3068 3069 3070 3071 3070 3069 3068
2960 2962 2967 2973 2977 2979 2980 2985 2990 2996 3002 3004 3001 3003 3011 3019 3021 3023 3027 3030 3032 3035 3038 3041 3044 3047 3050 3053 3054 3056 3058 3059 3060 3061 3062 3062 3063 3064 3065 3066 3067 3068 3067 3066
2953 2957 2961 2966 2968 2974 2978 2970 2977 2981 2986 2988 2991 2994 3007 3010 3015 3019 3023 3025 3027 3031 3034 3037 3040 3044 3047 3049 3050 3051 3053 3054 3055 3056 3056 3057 3058 3059 3060 3061 3063 3063 3063 3063
2941 2951 2954 2957 2964 2969 2958 2961 2968 2970 2975 2979 2980 2987 2998 3004 3011 3013 3016 3020 3022 3025 3029 3032 3036 3040 3042 3044 3045 3047 3048 3048 3049 3049 3050 3051 3053 3054 3056 3057 3058 3059 3060 3060
2932 2938 2944 2952 2954 2954 2952 2950 2955 2960 2958 2965 2967 2976 2986 2994 3000 3002 3007 3012 3017 3020 3024 3028 3032 3034 3036 3037 3039 3040 3041 3042 3043 3043 3043 3045 3047 3048 3050 3051 3053 3054 3054 3055
2925 2932 2941 2944 2948 2949 2939 2946 2952 2958 2950 2954 2958 2965 2973 2982 2984 2990 3000 3005 3009 3013 3018 3022 3026 3028 3029 3031 3032 3034 3035 3037 3037 3037 3038 3039 3041 3043 3044 3046 3048 3050 3050 3051
2910 2919 2924 2930 2936 2934 2934 2939 2944 2953 2942 2945 2948 2953 2964 2966 2974 2988 2992 2997 3003 3009 3014 3017 3020 3022 3024 3026 3028 3030 3031 3032 3033 3034 3034 3035 3036 3038 3040 3042 3044 3046 3047 3047
2896 2905 2911 2920 2927 2928 2924 2930 2933 2934 2938 2942 2944 2946 2954 2962 2969 2979 2987 2992 2998 3004 3008 3011 3014 3017 3020 3023 3025 3027 3028 3030 3031 3032 3033 3033 3034 3035 3036 3038 3039 3041 3042 3043
2890 2893 2899 2908 2908 2910 2914 2921 2927 2932 2936 2939 2942 2945 2950 2955 2962 2972 2980 2986 2991 2997 3002 3006 3010 3013 3016 3019 3022 3024 3026 3027 3029 3029 3030 3031 3032 3033 3034 3035 3036 3038 3038 3039
2884 2888 2895 2905 2906 2910 2912 2920 2925 2929 2933 2935 2940 2942 2947 2953 2959 2966 2973 2979 2985 2991 2997 3002 3005 3009 3013 3016 3019 3022 3023 3024 3026 3027 3028 3029 3029 3030 3031 3032 3033 3034 3034 3034
2879 2884 2890 2897 2898 2903 2906 2913 2921 2925 2928 2931 2936 2941 2944 2949 2956 2962 2967 2973 2980 2986 2991 2996 3002 3006 3009 3013 3016 3018 3020 3021 3022 3023 3024 3024 3024 3026 3027 3028 3028 3029 3029 3030
2875 2880 2885 2885 2888 2897 2904 2911 2916 2920 2926 2929 2934 2938 2941 2947 2952 2958 2965 2971 2976 2980 2986 2992 2997 3003 3006 3010 3012 3014 3015 3016 3017 3017 3017 3018 3018 3019 3020 3022 3023 3024 3024 3025